• In Hungary
  • List of Countries
  • For 7 days
  • Water Temperature
  • Satellite Maps
  • Weather Map
  • News
  • Weather Widgets
  • user-avatar
    Login

    Hourly Weather Islambaevo

    Today, 25 May, Friday

    Time Temperature Precipitation Wind Pressure Humidity
    00:00 +14°C° 0.1 mm 1 mps 713 mmHg 92%
    01:00 +12°C° 0.1 mm 0 mps 713 mmHg 92%
    02:00 +12°C° 0.2 mm 0 mps 713 mmHg 93%
    03:00 +12°C° 0.2 mm 0 mps 713 mmHg 94%
    04:00 +12°C° 0 mm 0 mps 712 mmHg 92%
    05:00 +14°C° 0.1 mm 0 mps 712 mmHg 89%
    06:00 +16°C° 0.1 mm 1 mps 712 mmHg 86%
    07:00 +18°C° 0.1 mm 1 mps 711 mmHg 83%
    08:00 +17°C° 0.6 mm 2 mps 711 mmHg 82%
    09:00 +17°C° 0.6 mm 3 mps 711 mmHg 81%
    10:00 +16°C° 0 mm 3 mps 711 mmHg 80%
    11:00 +15°C° 1.3 mm 2 mps 711 mmHg 83%
    12:00 +14°C° 1.3 mm 1 mps 711 mmHg 86%
    13:00 +13°C° 1.3 mm 1 mps 710 mmHg 88%
    14:00 +14°C° 0.4 mm 1 mps 710 mmHg 88%
    15:00 +14°C° 0.4 mm 2 mps 710 mmHg 87%
    16:00 +15°C° 0 mm 2 mps 710 mmHg 89%
    17:00 +12°C° 0.5 mm 3 mps 710 mmHg 90%
    18:00 +11°C° 0.5 mm 3 mps 710 mmHg 92%
    19:00 +10°C° 0.5 mm 4 mps 709 mmHg 93%
    20:00 +8°C° 0.6 mm 4 mps 710 mmHg 93%
    21:00 +7°C° 0.6 mm 4 mps 710 mmHg 92%
    22:00 +7°C° 0.6 mm 3 mps 710 mmHg 92%
    23:00 +5°C° 0.5 mm 3 mps 710 mmHg 91%

    Tomorrow, 26 May, Saturday

    Time Temperature Precipitation Wind Pressure Humidity
    00:00 +4°C° 0.5 mm 3 mps 710 mmHg 90%
    01:00 +3°C° 0.5 mm 4 mps 710 mmHg 89%
    02:00 +3°C° 0 mm 4 mps 710 mmHg 89%
    03:00 +3°C° 0 mm 4 mps 710 mmHg 90%
    04:00 +1°C° 0 mm 4 mps 710 mmHg 90%
    05:00 +2°C° 0 mm 5 mps 711 mmHg 84%
    06:00 +2°C° 0 mm 5 mps 711 mmHg 77%
    07:00 +3°C° 0 mm 6 mps 712 mmHg 71%
    08:00 +4°C° 0 mm 6 mps 712 mmHg 62%
    09:00 +7°C° 0 mm 6 mps 712 mmHg 53%
    10:00 +8°C° 0 mm 6 mps 713 mmHg 44%
    11:00 +8°C° 0 mm 6 mps 713 mmHg 41%
    12:00 +9°C° 0 mm 6 mps 714 mmHg 39%
    13:00 +9°C° 0 mm 6 mps 714 mmHg 36%
    14:00 +9°C° 0 mm 6 mps 714 mmHg 37%
    15:00 +9°C° 0 mm 6 mps 714 mmHg 37%
    16:00 +9°C° 0 mm 6 mps 715 mmHg 37%
    17:00 +8°C° 0 mm 5 mps 715 mmHg 40%
    18:00 +7°C° 0 mm 5 mps 715 mmHg 43%
    19:00 +7°C° 0 mm 4 mps 716 mmHg 46%
    20:00 +5°C° 0 mm 4 mps 716 mmHg 51%
    21:00 +4°C° 0 mm 3 mps 717 mmHg 55%
    22:00 +2°C° 0 mm 3 mps 717 mmHg 60%
    23:00 +2°C° 0 mm 2 mps 717 mmHg 63%

    Day after tomorrow, 27 May, Sunday

    Time Temperature Precipitation Wind Pressure Humidity
    00:00 +1°C° 0 mm 2 mps 717 mmHg 66%
    01:00 +1°C° 0 mm 2 mps 718 mmHg 68%
    02:00 -1°C° 0 mm 2 mps 718 mmHg 70%
    03:00 +1°C° 0 mm 1 mps 718 mmHg 72%
    04:00 0°C° 0 mm 1 mps 718 mmHg 74%
    05:00 +1°C° 0 mm 2 mps 718 mmHg 66%
    06:00 +4°C° 0 mm 2 mps 719 mmHg 57%
    07:00 +5°C° 0 mm 3 mps 719 mmHg 49%
    08:00 +8°C° 0 mm 3 mps 719 mmHg 46%
    09:00 +8°C° 0 mm 4 mps 719 mmHg 43%
    10:00 +11°C° 0 mm 4 mps 718 mmHg 40%
    11:00 +12°C° 0 mm 5 mps 718 mmHg 41%
    12:00 +13°C° 0 mm 5 mps 718 mmHg 42%
    13:00 +14°C° 0 mm 5 mps 717 mmHg 43%
    14:00 +14°C° 0 mm 5 mps 716 mmHg 45%
    15:00 +15°C° 0 mm 5 mps 716 mmHg 47%
    16:00 +15°C° 0 mm 6 mps 715 mmHg 48%
    17:00 +14°C° 0 mm 5 mps 714 mmHg 54%
    18:00 +13°C° 0 mm 5 mps 714 mmHg 59%
    19:00 +13°C° 0 mm 5 mps 713 mmHg 64%
    20:00 +12°C° 0.1 mm 5 mps 713 mmHg 70%
    21:00 +10°C° 0.1 mm 5 mps 712 mmHg 76%
    22:00 +9°C° 0.1 mm 5 mps 712 mmHg 81%
    23:00 +9°C° 0.1 mm 5 mps 711 mmHg 83%

    28 May, Monday

    Time Temperature Precipitation Wind Pressure Humidity
    00:00 +8°C° 0.1 mm 5 mps 710 mmHg 85%
    01:00 +8°C° 0.1 mm 5 mps 709 mmHg 87%
    02:00 +8°C° 0.3 mm 6 mps 708 mmHg 88%
    03:00 +8°C° 0.3 mm 6 mps 708 mmHg 89%
    04:00 +7°C° 0.3 mm 6 mps 707 mmHg 90%
    05:00 +7°C° 1.7 mm 6 mps 707 mmHg 91%
    06:00 +6°C° 1.7 mm 5 mps 707 mmHg 91%
    07:00 +5°C° 1.7 mm 5 mps 707 mmHg 92%
    08:00 +6°C° 0.1 mm 5 mps 707 mmHg 85%
    09:00 +6°C° 0.1 mm 5 mps 708 mmHg 78%
    10:00 +7°C° 0.1 mm 5 mps 708 mmHg 71%
    11:00 +8°C° 0.3 mm 5 mps 708 mmHg 65%
    12:00 +9°C° 0.3 mm 5 mps 708 mmHg 59%
    13:00 +9°C° 0.3 mm 5 mps 709 mmHg 53%
    14:00 +9°C° 0.3 mm 6 mps 709 mmHg 55%
    15:00 +8°C° 0.3 mm 6 mps 709 mmHg 57%
    16:00 +8°C° 0.3 mm 6 mps 709 mmHg 59%
    17:00 +7°C° 0.2 mm 5 mps 709 mmHg 64%
    18:00 +6°C° 0.2 mm 5 mps 709 mmHg 68%
    19:00 +5°C° 0.2 mm 4 mps 709 mmHg 72%
    20:00 +3°C° 0 mm 4 mps 710 mmHg 77%
    21:00 +2°C° 0 mm 3 mps 710 mmHg 81%
    22:00 +1°C° 0 mm 2 mps 710 mmHg 86%
    23:00 +1°C° 0 mm 2 mps 710 mmHg 88%

    29 May, Tuesday

    Time Temperature Precipitation Wind Pressure Humidity
    00:00 -1°C° 0 mm 2 mps 710 mmHg 91%
    01:00 -2°C° 0 mm 2 mps 710 mmHg 93%
    02:00 -2°C° 0 mm 2 mps 710 mmHg 94%
    03:00 -3°C° 0 mm 2 mps 710 mmHg 95%
    04:00 -3°C° 0 mm 2 mps 709 mmHg 96%
    05:00 -1°C° 0 mm 3 mps 710 mmHg 86%
    06:00 0°C° 0 mm 3 mps 710 mmHg 76%
    07:00 +1°C° 0 mm 4 mps 710 mmHg 65%
    08:00 +2°C° 0 mm 5 mps 710 mmHg 59%
    09:00 +3°C° 0 mm 5 mps 710 mmHg 54%
    10:00 +4°C° 0 mm 6 mps 710 mmHg 48%
    11:00 +5°C° 0.1 mm 6 mps 710 mmHg 47%
    12:00 +5°C° 0.1 mm 6 mps 710 mmHg 46%
    13:00 +7°C° 0.1 mm 6 mps 710 mmHg 45%
    14:00 +5°C° 0.2 mm 6 mps 710 mmHg 48%
    15:00 +6°C° 0.2 mm 5 mps 710 mmHg 50%
    16:00 +6°C° 0.2 mm 5 mps 710 mmHg 53%
    17:00 +6°C° 0.1 mm 5 mps 710 mmHg 56%
    18:00 +5°C° 0.1 mm 4 mps 709 mmHg 59%
    19:00 +4°C° 0.1 mm 4 mps 709 mmHg 62%
    20:00 +3°C° 0 mm 3 mps 709 mmHg 70%
    21:00 +2°C° 0 mm 2 mps 709 mmHg 79%
    22:00 +1°C° 0 mm 1 mps 709 mmHg 88%
    23:00 +1°C° 0 mm 1 mps 709 mmHg 89%

    30 May, Wednesday

    Time Temperature Precipitation Wind Pressure Humidity
    00:00 +1°C° 0 mm 1 mps 709 mmHg 91%
    01:00 +1°C° 0 mm 1 mps 709 mmHg 92%
    02:00 0°C° 0 mm 1 mps 709 mmHg 93%
    03:00 0°C° 0 mm 1 mps 709 mmHg 94%
    04:00 0°C° 0 mm 1 mps 709 mmHg 94%
    05:00 +2°C° 0 mm 1 mps 709 mmHg 83%
    06:00 +3°C° 0 mm 2 mps 710 mmHg 72%
    07:00 +4°C° 0 mm 3 mps 710 mmHg 61%
    08:00 +5°C° 0.1 mm 3 mps 710 mmHg 56%
    09:00 +7°C° 0.1 mm 3 mps 711 mmHg 51%
    10:00 +7°C° 0.1 mm 4 mps 711 mmHg 46%
    11:00 +8°C° 0 mm 4 mps 711 mmHg 44%
    12:00 +10°C° 0 mm 4 mps 711 mmHg 41%
    13:00 +11°C° 0 mm 4 mps 711 mmHg 38%
    14:00 +11°C° 0 mm 4 mps 710 mmHg 39%
    15:00 +11°C° 0 mm 4 mps 710 mmHg 40%
    16:00 +11°C° 0 mm 4 mps 710 mmHg 41%
    17:00 +10°C° 0 mm 3 mps 710 mmHg 48%
    18:00 +9°C° 0 mm 3 mps 710 mmHg 55%
    19:00 +9°C° 0 mm 2 mps 709 mmHg 62%
    20:00 +8°C° 0 mm 3 mps 708 mmHg 67%
    21:00 +7°C° 0 mm 3 mps 708 mmHg 71%
    22:00 +6°C° 0 mm 4 mps 707 mmHg 76%
    23:00 +6°C° 1 mm 5 mps 706 mmHg 80%
    Show more